Flag for Germany Weather past 2 weeks in Koblenz, Rhineland-Palatinate, Germany

Now
64 °F

Mild.


Feels Like: 64 °F
Forecast: 61 / 77 °F
Wind: 5 mph from Northeast

Location: Buechel

Current Time: Jul 29, 2014 at 11:19:40 PM

Latest Report: Jul 29, 2014 at 10:20 PM


Visibility: 2 mi

Pressure: 29.83 "Hg

Humidity: 94%

Dew point: 63 °F

Location of KoblenzLocation

Historic Weather in Koblenz — Graph

°F

Koblenz temperature yesterday

Maximum temperature yesterday: 75 °F (at 1:20 PM)
Minimum temperature yesterday: 61 °F (at 5:20 AM)
Average temperature yesterday: 65 °F

Past Weeks' High & Low Weather Summary

 TemperatureHumidityPressure
High86 °F (Jul 18, 4:20 PM)100% (Jul 22, 1:20 AM)30.21 "Hg (Jul 22, 1:20 AM)
Low55 °F (Jul 15, 4:20 AM)29% (Jul 18, 5:20 PM)29.80 "Hg (Jul 29, 6:20 PM)
Average68 °F69%30.01 "Hg
* Reported Jul 14 9:20 PM — Jul 29 9:20 PM, Koblenz, Weather by CustomWeather, © 2014

Note: Actual official high and low records may vary slightly from our data, if they occured in-between our weather recording intervals... More about our weather records

Advertising

Koblenz weather history for previous 24 hours

 ConditionsComfort  
Time TempWeatherWind HumidityBarometerVisibility
9:20 PM
Jul 29
66 °FMild.8 mph88%29.83 "Hg6 mi
8:20 PM68 °FMild.7 mph83%29.80 "Hg6 mi
7:20 PM68 °FMild.7 mph88%29.80 "Hg4 mi
6:20 PM68 °FMild.7 mph94%29.80 "Hg3 mi
5:20 PM66 °FMild.5 mph94%29.83 "Hg3 mi
5:01 PM66 °FRain showers. Broken clouds.6 mph94%29.83 "Hg3 mi
4:20 PM68 °FRain showers. Partly sunny.9 mph88%29.83 "Hg3 mi
4:04 PM68 °FSprinkles. Partly sunny.8 mph88%29.83 "Hg3 mi
3:52 PM68 °FRain showers. Partly sunny.9 mph88%29.83 "Hg2 mi
3:20 PM72 °FSprinkles. Partly sunny.10 mph73%29.83 "Hg4 mi
2:48 PM72 °FThundershowers. Partly sunny.8 mph73%29.83 "Hg6 mi
2:20 PM72 °FPartly sunny.8 mph73%29.83 "Hg6 mi
1:20 PM66 °FBroken clouds.9 mph88%29.86 "Hg4 mi
12:20 PM66 °FFog.7 mph88%29.86 "Hg3 mi
11:20 AM64 °FFog.8 mph94%29.86 "Hg2 mi
10:20 AM64 °FFog.10 mph88%29.86 "Hg3 mi
9:20 AM64 °FFog.8 mph88%29.83 "Hg2 mi
8:20 AM63 °FFog.8 mph94%29.83 "Hg2 mi
7:20 AM63 °FFog.10 mph88%29.83 "Hg1 mi
6:20 AM63 °FFog.12 mph88%29.83 "Hg1 mi
5:20 AM63 °FFog.10 mph94%29.83 "Hg1 mi
4:20 AM63 °FFog.6 mph94%29.83 "Hg1 mi
3:20 AM63 °FMild.7 mph94%29.86 "Hg1 mi
2:20 AM63 °FMild.8 mph94%29.86 "Hg2 mi
1:20 AM63 °FMild.2 mph94%29.86 "Hg2 mi
12:20 AM63 °FMild.7 mph94%29.86 "Hg4 mi
11:20 PM
Jul 28
63 °FMild.7 mph94%29.86 "Hg4 mi
Weather by CustomWeather, © 2014

See weather overviewHow to use our weather pages